[[{"header":{"parameterUnit":"m.s-1","parameterCategory":1,"la1":30.2991,"la2":30.254,"lo1":-89.0895,"lo2":-89.0444,"dy":0.0017,"dx":0.0017,"nx":28,"ny":28,"refTime":"2024-02-13T09:00:00:Z","depth":0,"parameterNumber":2,"parameterNumberName":"U-component_of_WINDS"},"data":[0,0,0,0,0,0,0,0,0,0,0,0,0,0,0,0,0,0,0,0,0,0,0,0,0,0,0,0,0,0,0,0,0,0,0,0,0,0,0,0,0,0,0,0,0,0,0,0,0,0,0,0,0,0,0,0,0,0,1.1111,1.1111,0,1.1133,1.1133,1.1133,1.1114,1.1113,1.1112,1.1112,1.1135,1.1137,1.1138,0,0,0,0,0,0,0,0,0,0,0,0,0,1.1055,1.1056,1.1111,1.1111,1.1112,1.1133,1.1133,1.1133,1.1114,1.1113,1.1112,1.1111,1.1135,1.1136,1.1138,0,0,0,0,0,0,0,0,0,0,0,0,0,1.1079,1.1057,1.1111,1.1105,1.1104,1.1133,1.1133,1.1134,1.1114,1.1113,1.1112,1.1111,1.1134,1.1136,1.1138,1.1175,0,0,1.1144,1.1145,0,0,0,0,0,0,0,0,1.1077,1.1081,1.1105,1.1105,1.1105,1.1119,1.1122,1.1147,1.1115,1.1111,1.1112,1.111,1.1131,1.1133,1.114,1.1176,1.1177,1.1145,1.1146,1.1147,1.1147,0,0,0,0,0,0,0,1.1076,1.108,1.112,1.1106,1.1105,1.1101,1.1103,1.1127,1.1127,1.1111,1.111,1.1112,1.1131,1.1138,1.114,1.1177,1.1145,1.1146,1.1148,1.1148,1.1245,1.1247,0,0,0,0,0,0,1.1075,1.1078,1.1119,1.112,1.1088,1.1103,1.1106,1.1116,1.1127,1.1127,1.1113,1.1111,1.1135,1.1138,1.1141,1.1186,1.1147,1.1149,1.115,1.1244,1.1246,1.1247,0,0,0,0,0,0,1.1073,1.1078,1.1118,1.1099,1.1104,1.1106,1.1117,1.1117,1.1124,1.1129,1.1129,1.1121,1.1134,1.1138,1.1167,1.1186,1.115,1.1151,1.1243,1.1245,1.1246,1.1274,0,0,0,0,0,0,1.1072,1.1078,1.1091,1.11,1.1105,1.1143,1.1119,1.1118,1.1128,1.1125,1.1136,1.1136,1.1134,1.1164,1.1169,1.1188,1.1153,1.1241,1.1243,1.1246,1.1272,1.1277,1.1282,0,0,0,0,0,1.107,1.1098,1.1092,1.1097,1.1122,1.1144,1.1147,1.1143,1.1129,1.1143,1.1146,1.1136,1.1183,1.1167,1.1172,1.1193,1.124,1.1243,1.1246,1.1269,1.1276,1.1282,0,0,0,0,0,0,1.1093,1.1099,1.1092,1.1124,1.1134,1.1141,1.1158,1.115,1.1164,1.1161,1.1156,1.1159,1.1189,1.1194,1.1176,1.1229,1.1209,1.1213,1.1225,1.1232,1.1237,1.1235,1.1155,0,0,0,0,0,1.1101,1.1118,1.1123,1.1151,1.1156,1.1156,1.1166,1.1162,1.1172,1.1176,1.1181,1.1192,1.1209,1.122,1.1236,1.1272,1.1275,1.1289,1.1294,1.1298,1.1302,1.1323,1.1329,1.1257,1.1257,1.1257,0,0,1.1119,1.1125,1.1136,1.1156,1.1163,1.1182,1.116,1.118,1.1195,1.1179,1.1207,1.1211,1.1222,1.1255,1.127,1.126,1.1322,1.1302,1.1305,1.1307,1.1326,1.1333,1.1339,1.1259,1.1259,1.1259,0,0,1.1162,1.1168,1.1192,1.12,1.121,1.121,1.1216,1.1225,1.1227,1.1254,1.1244,1.1261,1.129,1.1299,1.1308,1.1355,1.1347,1.136,1.1387,1.1407,1.1413,1.1418,1.1436,1.1442,1.1364,1.1364,1.1364,0,1.1184,1.1211,1.1206,1.1227,1.1237,1.1224,1.1249,1.1256,1.1272,1.1279,1.1268,1.1305,1.1312,1.1347,1.1359,1.1366,1.1373,1.1359,1.1412,1.1417,1.1422,1.1439,1.1446,1.1366,1.1366,1.1366,1.1365,0,1.1238,1.1257,1.1275,1.1291,1.1302,1.1325,1.1324,1.1337,1.1332,1.1334,1.1362,1.137,1.1388,1.1396,1.1391,1.1431,1.1425,1.1413,1.1392,1.143,1.1447,1.1453,1.1368,1.1368,1.1367,1.1367,0,0,1.1296,1.1308,1.1315,1.1323,1.1334,1.1349,1.1372,1.1389,1.1401,1.1412,1.1432,1.1458,1.1447,1.1457,1.1453,1.1471,1.151,1.1457,1.1457,1.1468,1.1555,1.1565,1.1573,1.1504,1.1505,1.1506,1.1555,0,1.134,1.138,1.1376,1.1414,1.1433,1.1421,1.1441,1.1451,1.1453,1.147,1.1472,1.1491,1.1475,1.1481,1.1498,1.1502,1.1528,1.1498,1.1524,1.1525,1.1522,1.1581,1.1591,1.1637,1.1561,1.1562,1.1563,0,1.1397,1.1411,1.1451,1.146,1.1468,1.1486,1.1503,1.1518,1.1529,1.153,1.1541,1.1535,1.1559,1.1538,1.1572,1.1552,1.1562,1.1566,1.1567,1.1571,1.1547,1.1587,1.1652,1.1659,1.1573,1.1572,1.1571,0,1.1438,1.1466,1.1494,1.15,1.1511,1.1525,1.153,1.154,1.1551,1.1565,1.1573,1.159,1.1599,1.1613,1.1612,1.1596,1.1648,1.1626,1.165,1.165,1.1662,1.1661,1.173,1.1666,1.1666,1.1666,1.1666,0,1.1488,1.1514,1.1512,1.1529,1.1558,1.1553,1.1582,1.1586,1.1595,1.1613,1.1604,1.1622,1.1619,1.1637,1.1636,1.1666,1.167,1.1672,1.1671,1.1673,1.1673,1.1681,1.1678,1.1668,1.1668,1.1667,1.1667,0,1.1538,1.1538,1.1568,1.1576,1.1579,1.16,1.1607,1.1624,1.1626,1.165,1.1655,1.1658,1.1679,1.1679,1.1702,1.1702,1.1738,1.1734,1.1735,1.1734,1.1759,1.1757,1.1836,1.1847,1.1775,1.1776,1.1776,0,1.1571,1.1591,1.1601,1.1613,1.1619,1.1638,1.1649,1.1646,1.1658,1.1673,1.1688,1.1708,1.1724,1.1758,1.1763,1.1781,1.1778,1.1804,1.1781,1.1783,1.178,1.178,1.1782,1.1809,1.181,1.1811,1.1811,0,1.1631,1.163,1.1646,1.1663,1.1676,1.169,1.1702,1.1712,1.171,1.1724,1.1746,1.1758,1.1783,1.1803,1.1821,1.1827,1.182,1.1819,1.1825,1.1828,1.1829,1.183,1.1749,1.1817,1.1817,1.1816,1.1816,1.1816,1.1674,1.1691,1.1702,1.1721,1.1729,1.1741,1.1758,1.1761,1.1779,1.1798,1.1795,1.1819,1.1831,1.1854,1.1862,1.1882,1.1873,1.1882,1.1885,1.1888,1.1891,1.1824,1.1885,1.1885,1.1884,1.1884,1.1884,0,1.1734,1.174,1.1758,1.1775,1.179,1.1781,1.1794,1.1807,1.1829,1.184,1.1856,1.1881,1.1901,1.1907,1.1927,1.1941,1.1938,1.1946,1.1946,1.1948,1.1897,1.189,1.1949,1.1949,1.1949,1.1948,1.1948,1.1948,1.1767,1.1796,1.1797,1.183,1.1836,1.1859,1.1868,1.1879,1.1888,1.1916,1.1933,1.1937,1.1946,1.1967,1.1985,1.1986,1.1995,1.2005,1.2005,1.1958,1.1951,1.1945,1.1938,1.2006,1.2006,1.2054,1.2055,1.2055]},{"header":{"parameterUnit":"m.s-1","parameterCategory":1,"la1":30.2991,"la2":30.254,"lo1":-89.0895,"lo2":-89.0444,"dy":0.0017,"dx":0.0017,"nx":28,"ny":28,"refTime":"2024-02-13T09:00:00:Z","depth":0,"parameterNumber":3,"parameterNumberName":"V-component_of_WINDS"},"data":[0,0,0,0,0,0,0,0,0,0,0,0,0,0,0,0,0,0,0,0,0,0,0,0,0,0,0,0,0,0,0,0,0,0,0,0,0,0,0,0,0,0,0,0,0,0,0,0,0,0,0,0,0,0,0,0,0,0,-2.5414,-2.5415,0,-2.5486,-2.5487,-2.5487,-2.5512,-2.5512,-2.5512,-2.5512,-2.5581,-2.5583,-2.5586,0,0,0,0,0,0,0,0,0,0,0,0,0,-2.5297,-2.5299,-2.5414,-2.5415,-2.5416,-2.5486,-2.5487,-2.5488,-2.5512,-2.5512,-2.5512,-2.5511,-2.5581,-2.5583,-2.5586,0,0,0,0,0,0,0,0,0,0,0,0,0,-2.5356,-2.53,-2.5414,-2.5437,-2.5439,-2.5486,-2.5487,-2.5488,-2.5512,-2.5512,-2.5512,-2.5511,-2.558,-2.5583,-2.5586,-2.5614,0,0,-2.5596,-2.5597,0,0,0,0,0,0,0,0,-2.5353,-2.5361,-2.5432,-2.5435,-2.5438,-2.549,-2.5471,-2.553,-2.5513,-2.5485,-2.5511,-2.5511,-2.5551,-2.5557,-2.5571,-2.5617,-2.562,-2.5596,-2.5598,-2.5599,-2.56,0,0,0,0,0,0,0,-2.5349,-2.5358,-2.5442,-2.5433,-2.5437,-2.5443,-2.5451,-2.5482,-2.5519,-2.5487,-2.5489,-2.5497,-2.5553,-2.5568,-2.5573,-2.5621,-2.5596,-2.5599,-2.5601,-2.5602,-2.5697,-2.5697,0,0,0,0,0,0,-2.5341,-2.5354,-2.544,-2.5444,-2.5394,-2.5445,-2.5454,-2.5474,-2.5519,-2.5525,-2.5498,-2.5498,-2.5562,-2.5569,-2.5575,-2.5613,-2.5599,-2.5602,-2.5604,-2.5696,-2.5697,-2.5698,0,0,0,0,0,0,-2.5339,-2.5349,-2.5437,-2.54,-2.5412,-2.5448,-2.5469,-2.5475,-2.549,-2.5527,-2.5533,-2.5506,-2.5562,-2.5571,-2.5605,-2.5616,-2.5604,-2.5607,-2.5695,-2.5696,-2.5697,-2.5687,0,0,0,0,0,0,-2.5335,-2.5348,-2.5358,-2.54,-2.5414,-2.5466,-2.547,-2.5477,-2.5496,-2.5498,-2.5537,-2.5543,-2.5563,-2.56,-2.5608,-2.562,-2.5609,-2.5695,-2.5696,-2.5697,-2.5686,-2.5687,-2.5688,0,0,0,0,0,-2.5331,-2.5351,-2.5359,-2.5369,-2.5428,-2.5467,-2.5474,-2.5498,-2.5497,-2.5508,-2.5532,-2.5542,-2.5613,-2.5603,-2.5613,-2.5625,-2.5694,-2.5695,-2.5697,-2.5686,-2.5687,-2.5688,0,0,0,0,0,0,-2.5308,-2.5357,-2.5366,-2.54,-2.5429,-2.5471,-2.5486,-2.5498,-2.5526,-2.5526,-2.5553,-2.5562,-2.5595,-2.5613,-2.5601,-2.5656,-2.5654,-2.5657,-2.5643,-2.5644,-2.5645,-2.564,-2.5612,0,0,0,0,0,-2.5307,-2.5335,-2.5376,-2.5402,-2.5417,-2.5449,-2.5466,-2.5482,-2.5513,-2.5525,-2.5551,-2.558,-2.5609,-2.5627,-2.5656,-2.5689,-2.5699,-2.5703,-2.5703,-2.5704,-2.5707,-2.5729,-2.5731,-2.5702,-2.5702,-2.5702,0,0,-2.5305,-2.5335,-2.5351,-2.5399,-2.5423,-2.5451,-2.5459,-2.5487,-2.5509,-2.5529,-2.5564,-2.5584,-2.5618,-2.5653,-2.5669,-2.5669,-2.5717,-2.5706,-2.5706,-2.5708,-2.573,-2.5733,-2.5735,-2.5703,-2.5703,-2.5703,0,0,-2.5316,-2.5341,-2.5368,-2.5393,-2.5431,-2.5452,-2.5459,-2.5499,-2.5514,-2.555,-2.5566,-2.5592,-2.5641,-2.5665,-2.5684,-2.5708,-2.5719,-2.5717,-2.5721,-2.5742,-2.5745,-2.5747,-2.5758,-2.5761,-2.5719,-2.5719,-2.5719,0,-2.5308,-2.5353,-2.5379,-2.5409,-2.543,-2.5451,-2.5479,-2.5501,-2.5546,-2.556,-2.556,-2.5624,-2.5648,-2.569,-2.5697,-2.571,-2.5719,-2.5713,-2.5742,-2.5745,-2.5747,-2.5758,-2.5762,-2.5719,-2.5719,-2.5719,-2.5719,0,-2.5343,-2.5374,-2.539,-2.5436,-2.5459,-2.5486,-2.5517,-2.5537,-2.5552,-2.5574,-2.5611,-2.5642,-2.5678,-2.5689,-2.5702,-2.5734,-2.5733,-2.5737,-2.5736,-2.5749,-2.576,-2.5764,-2.5718,-2.5718,-2.5719,-2.5719,0,0,-2.534,-2.5402,-2.5408,-2.543,-2.5475,-2.5499,-2.5528,-2.5566,-2.5584,-2.5614,-2.5641,-2.5683,-2.5689,-2.571,-2.5726,-2.5745,-2.5765,-2.5747,-2.5748,-2.5751,-2.5805,-2.5803,-2.5807,-2.5772,-2.5773,-2.5774,-2.5803,0,-2.5358,-2.5414,-2.544,-2.5484,-2.5514,-2.5536,-2.5562,-2.5593,-2.5615,-2.5643,-2.5666,-2.5697,-2.57,-2.5714,-2.5733,-2.5759,-2.5777,-2.5757,-2.5798,-2.5799,-2.579,-2.5812,-2.5809,-2.5835,-2.5807,-2.5807,-2.5808,0,-2.5387,-2.542,-2.5468,-2.5513,-2.5526,-2.5549,-2.5588,-2.5614,-2.565,-2.5665,-2.569,-2.5707,-2.574,-2.5736,-2.5783,-2.5769,-2.5787,-2.5802,-2.5804,-2.5809,-2.5805,-2.582,-2.5843,-2.5848,-2.5814,-2.5814,-2.5813,0,-2.5382,-2.5439,-2.5476,-2.5494,-2.5546,-2.5563,-2.5585,-2.562,-2.5642,-2.5675,-2.569,-2.5726,-2.5746,-2.5773,-2.5799,-2.5794,-2.5844,-2.5842,-2.5858,-2.5858,-2.5868,-2.5867,-2.5897,-2.5877,-2.5877,-2.5877,-2.5877,0,-2.5401,-2.5429,-2.5475,-2.5498,-2.5532,-2.5562,-2.5594,-2.5618,-2.565,-2.5678,-2.5698,-2.5724,-2.5756,-2.5786,-2.5806,-2.5843,-2.5851,-2.5865,-2.587,-2.5864,-2.5862,-2.5877,-2.5876,-2.5878,-2.5878,-2.5878,-2.5878,0,-2.5401,-2.5433,-2.5475,-2.5522,-2.5535,-2.5558,-2.5598,-2.5622,-2.5646,-2.5681,-2.5691,-2.5728,-2.5765,-2.5794,-2.5841,-2.5855,-2.5894,-2.5899,-2.5883,-2.5886,-2.5901,-2.59,-2.5942,-2.595,-2.5924,-2.5924,-2.5924,0,-2.5411,-2.5435,-2.5486,-2.5507,-2.553,-2.5563,-2.5587,-2.5618,-2.5642,-2.5686,-2.5704,-2.5743,-2.5776,-2.5834,-2.5865,-2.5901,-2.5908,-2.5921,-2.5914,-2.5908,-2.5911,-2.591,-2.5914,-2.5922,-2.5922,-2.5922,-2.5922,0,-2.5427,-2.5442,-2.5476,-2.5517,-2.5546,-2.5579,-2.5612,-2.5628,-2.5665,-2.5691,-2.573,-2.5756,-2.5806,-2.5845,-2.5885,-2.5908,-2.5922,-2.5924,-2.593,-2.5924,-2.5915,-2.5923,-2.5887,-2.5923,-2.5923,-2.5923,-2.5923,-2.5923,-2.5433,-2.5457,-2.5497,-2.5536,-2.5565,-2.5596,-2.5622,-2.565,-2.5684,-2.5729,-2.5745,-2.5786,-2.5823,-2.588,-2.5903,-2.5936,-2.5936,-2.5944,-2.5947,-2.5949,-2.595,-2.5909,-2.5943,-2.5943,-2.5943,-2.5943,-2.5943,0,-2.5452,-2.548,-2.5515,-2.5563,-2.5593,-2.5606,-2.5644,-2.5669,-2.5705,-2.574,-2.5773,-2.5819,-2.5858,-2.5893,-2.5934,-2.5953,-2.5961,-2.5963,-2.5962,-2.5968,-2.5945,-2.5937,-2.5956,-2.5956,-2.5956,-2.5956,-2.5956,-2.5956,-2.5465,-2.5505,-2.5526,-2.5583,-2.561,-2.5652,-2.5674,-2.5703,-2.5732,-2.5784,-2.5817,-2.584,-2.5876,-2.592,-2.5956,-2.5966,-2.598,-2.5981,-2.5992,-2.5971,-2.5969,-2.5967,-2.596,-2.5984,-2.5984,-2.6013,-2.6013,-2.6013]}]]